GFSFLT1_850_dewp_186.txt.gz
Dewpoint
-0 1 1 3 7 9 11 13 10 9 11 13 13 13 12 12 12 12 12 10 4 -1 -4 -7 -10 -13 -16 -18 -19 -18 -17 -15
-0 1 2 3 6 9 11 12 11 11 11 12 13 13 13 12 12 12 12 10 7 -0 -2 -5 -9 -12 -15 -18 -20 -19 -11 -11
-1 -0 1 3 4 8 10 12 13 12 11 11 12 12 13 12 12 12 11 11 7 2 -1 -4 -8 -11 -14 -17 -19 -19 -14 -15
3 2 2 3 4 7 9 10 12 10 11 11 12 11 11 12 12 12 11 11 7 2 -1 -3 -7 -11 -14 -17 -19 -19 -10 -12
3 3 4 4 3 6 8 10 11 11 10 11 11 11 11 11 12 12 11 9 4 2 0 -1 -6 -10 -13 -17 -20 -21 -20 -13
1 2 4 4 5 5 6 9 11 12 11 11 11 11 11 11 11 11 11 9 4 1 1 -2 -5 -9 -12 -16 -17 -15 -19 -9
1 2 3 4 4 5 7 9 10 12 12 11 10 11 11 10 10 11 11 9 3 2 1 -2 -4 -8 -12 -10 -9 -21 -22 -20
1 2 3 4 5 5 6 7 9 11 11 11 10 10 10 10 10 10 8 8 4 3 0 -3 -5 -7 -12 -15 -14 -5 -3 -22
-1 0 1 3 4 5 5 7 8 9 11 11 10 10 10 9 9 10 10 10 7 3 0 -3 -5 -8 -13 -10 2 2 -15 -24
-4 -1 -1 0 2 4 5 6 9 9 10 10 9 9 9 9 8 8 8 7 6 3 -1 2 -4 -9 -11 -4 2 -8 -22 -24
-5 -3 -1 -1 1 2 5 5 6 8 10 10 9 8 8 8 7 7 7 5 5 2 1 0 -5 -8 -9 -9 -11 -20 -22 -24
-5 -4 -2 -2 -1 -1 2 4 4 6 8 9 9 8 7 7 7 6 6 5 4 3 1 -2 -4 -5 -11 -12 -16 -13 -17 -22
-2 -1 -0 -1 1 4 2 3 4 4 7 9 8 8 6 6 6 5 4 4 3 2 -0 -2 -3 -3 -5 -4 -7 -10 -17 -18
-2 1 2 2 3 3 2 3 4 4 5 5 6 6 6 5 4 4 3 2 2 -0 -1 -1 0 -0 -1 -7 -8 -8 -9 -10
-3 0 2 3 3 3 3 3 4 5 4 4 4 4 4 3 3 2 2 1 1 0 1 1 -0 -0 -2 -8 -4 -4 -8 -13
-4 -1 1 1 2 2 3 4 3 5 3 3 3 3 3 2 2 2 1 1 1 2 1 -0 -1 -1 -1 -1 -5 -16 -9 -21
-1 1 -0 1 2 3 3 4 3 4 3 2 2 2 1 1 1 1 1 1 1 0 -1 -1 -0 -0 -1 -6 -14 -9 -18 -23
-2 -1 -0 2 2 3 4 4 3 4 3 3 1 0 -0 -0 -0 0 0 1 0 -1 -1 -0 -0 -2 -9 -13 -12 -11 -17 -23
1 1 2 2 2 3 3 3 3 3 3 3 2 1 0 -0 -0 0 1 0 -0 -1 -1 -2 -3 -4 -11 -12 -12 -17 -21 -24

GFSFLT1_850_dewp_189.txt.gz
Dewpoint
-2 -1 0 1 1 2 6 8 12 12 13 13 13 13 13 13 13 13 13 12 12 10 4 2 -1 -3 -3 -6 -4 -0 1 1
-0 2 2 3 3 3 5 8 10 13 13 13 12 13 12 13 13 13 13 12 12 11 5 2 -1 -4 -5 -7 -5 -1 1 0
2 2 3 4 3 3 5 7 9 12 12 13 13 12 12 13 13 13 13 12 12 11 7 3 0 -3 -4 -7 -6 -1 1 -2
1 1 1 3 4 5 5 6 7 8 12 12 13 12 11 11 12 13 12 12 12 12 8 3 3 -3 -4 -8 -10 -5 -1 -3
-0 0 1 2 3 4 6 6 7 8 11 12 12 12 11 11 11 12 12 12 12 11 11 4 2 -1 -3 -7 -10 -7 -3 -6
-1 -0 1 2 3 4 6 6 7 8 9 12 11 12 11 11 10 10 11 12 12 11 10 4 2 1 -2 -6 -7 -4 -5 -8
-3 -2 -1 0 1 3 4 5 5 6 8 11 12 12 12 10 10 9 10 10 11 11 10 8 3 0 -3 -4 -7 -8 -6 -8
-7 -6 -4 -1 -0 1 2 3 4 5 6 8 10 11 12 11 10 10 10 9 8 10 9 5 2 1 -1 -4 -7 -11 -12 -8
-8 -8 -6 -4 -2 -0 0 3 2 3 5 6 6 9 10 11 10 9 9 9 9 9 8 7 3 1 -1 -5 -6 -12 -16 -11
-11 -8 -7 -4 -3 -2 -1 1 3 2 3 5 3 5 10 10 10 9 9 8 8 8 8 7 4 2 -1 -5 -7 -9 -15 -14
-12 -10 -6 -2 -0 1 0 1 4 5 4 1 2 3 9 10 10 9 8 8 7 6 5 5 4 1 -2 -3 -1 -5 -9 -0
-11 -8 -5 -4 -1 0 2 3 3 4 3 3 3 3 8 9 9 8 8 7 6 4 4 4 3 1 -2 -1 -4 -4 1 -8
-9 -7 -5 -5 -3 -1 1 2 3 2 2 3 4 4 5 8 8 8 7 6 5 4 3 3 2 -0 -1 -3 -4 -2 -5 -4
-8 -6 -6 -5 -4 -1 0 1 2 3 4 4 4 3 4 5 6 6 6 5 4 3 3 2 2 0 -1 -3 -6 -9 -9 -12
-7 -7 -2 -2 -1 -2 -2 0 3 3 4 4 4 3 3 4 4 4 4 3 3 2 2 2 1 1 -1 -2 -5 -0 -3 -1
-9 -7 -7 -4 -2 -1 -1 1 3 3 4 4 3 2 1 2 3 3 3 2 2 2 1 1 1 -0 -1 -1 -1 -2 0 -7
-8 -8 -6 -3 -0 1 1 2 3 2 4 3 2 2 0 1 1 1 0 0 0 -0 -0 -0 -1 -1 -1 -1 -1 -1 -6 -6
-8 -7 -2 0 1 2 1 3 3 3 3 3 2 1 -0 -0 -1 -1 -1 -1 -2 -2 -1 -1 -2 -1 -1 -1 -1 -2 -5 -1
-7 -1 1 1 1 1 2 3 3 2 2 2 2 1 -0 -1 -1 -1 -1 -1 -2 -2 -2 -1 -1 -1 -2 -2 -2 -2 -7 -13

GFSFLT1_850_dewp_192.txt.gz
Dewpoint
2 3 3 3 4 3 3 6 11 10 11 12 13 12 12 13 13 13 13 13 13 12 10 9 7 2 1 1 -1 -1 -1 0
2 2 2 2 2 3 3 5 8 12 11 11 12 13 12 13 13 13 13 13 13 12 11 9 8 2 1 0 -1 -2 2 1
1 1 1 2 2 4 4 4 6 7 12 12 12 12 12 12 12 12 12 12 12 13 12 11 6 4 1 -0 -2 -1 2 1
-1 -0 0 1 2 3 4 5 1 6 7 12 13 13 13 13 13 12 11 12 11 12 12 11 7 5 3 -0 -3 -2 1 1
-2 -1 -0 1 1 2 3 3 3 5 5 7 11 13 12 12 12 12 12 12 11 11 12 11 9 7 4 0 -3 -3 -0 -1
-4 -4 -4 -3 -1 0 2 3 3 4 5 5 6 8 12 12 12 12 12 11 11 10 11 11 10 8 5 2 -1 -3 -2 -4
-6 -7 -7 -6 -5 -1 -0 1 2 3 3 2 1 2 4 9 10 11 11 11 11 10 10 10 9 7 6 3 1 -2 -2 -1
-8 -9 -9 -7 -5 -4 -2 -0 0 1 2 1 1 4 4 2 3 5 9 10 10 10 9 9 8 7 6 4 3 -0 -2 -0
-13 -13 -11 -9 -6 -2 -1 1 1 1 3 4 4 2 4 4 1 -1 1 8 10 10 10 9 8 7 6 5 3 1 -1 -0
-14 -14 -11 -7 -4 -3 -1 0 1 2 2 2 3 3 1 1 1 1 -0 4 9 10 10 9 8 7 6 5 4 2 -1 -2
-14 -13 -8 -6 -5 -5 -5 -3 0 1 0 1 3 3 4 2 2 3 3 5 8 9 9 8 7 6 5 4 3 2 0 -1
-14 -10 -8 -7 -7 -2 -1 0 0 0 1 -2 2 4 4 4 4 4 3 5 7 8 8 7 6 5 4 4 3 2 -0 -1
-12 -10 -8 -8 -4 -4 -5 -3 -2 -3 -3 2 3 3 4 4 4 3 3 6 6 8 8 6 5 5 3 3 3 2 -1 -4
-10 -9 -9 -8 -7 -7 -5 -4 -2 -3 2 3 4 2 3 4 3 2 3 5 5 6 6 5 5 4 2 2 3 0 -3 -3
-11 -10 -7 -7 -8 -6 -4 -3 -1 0 2 4 3 2 3 3 2 2 2 3 4 4 3 3 3 2 1 2 1 -1 -1 -2
-10 -7 -7 -9 -7 -2 -0 0 1 0 2 3 3 2 3 2 2 1 0 1 3 3 3 3 2 1 1 1 -0 -0 -1 -0
-8 -8 -10 -7 -2 0 1 1 1 2 2 3 2 2 2 1 0 -0 -1 -0 0 1 1 1 0 -0 -0 -0 -1 -1 -1 -1
-10 -9 -7 -4 0 1 1 -0 1 2 3 3 1 2 1 0 -0 -1 -1 -1 -1 -1 -1 -1 -1 -2 -2 -1 -1 -1 -2 -3
-6 -6 -7 -2 1 1 1 -0 2 2 2 2 2 2 1 -1 -1 -2 -1 -1 -1 -2 -2 -2 -3 -3 -3 -3 -2 -3 -2 -2

GFSFLT1_850_dewp_195.txt.gz
Dewpoint
2 3 3 3 3 3 4 6 12 13 14 14 13 13 13 12 12 12 12 12 13 13 12 12 11 10 7 6 4 2 -0 -2
1 1 -0 2 3 3 1 3 6 9 11 13 13 14 13 13 12 12 12 11 12 13 13 13 12 9 7 6 5 2 1 1
-0 -0 -0 -1 -0 -0 -4 -0 1 2 4 6 8 12 13 13 13 13 13 12 11 12 13 13 12 10 8 6 4 2 1 3
-2 -2 -1 -1 0 1 1 -1 -4 -4 2 4 6 11 12 12 12 12 13 12 12 11 11 12 12 10 10 5 4 3 1 3
-5 -5 -5 -2 -1 -2 -2 -1 -1 -5 -7 2 3 4 5 6 11 11 11 12 11 12 12 12 11 11 10 8 5 4 2 2
-7 -7 -7 -7 -6 -5 -2 -0 1 1 -0 -4 -0 0 -0 -0 0 2 3 8 11 11 11 10 11 11 11 8 5 4 3 1
-7 -9 -9 -8 -7 -6 -4 -3 -2 -1 1 2 -0 1 2 3 2 1 -1 0 3 6 9 10 11 10 10 8 5 4 4 1
-14 -13 -12 -9 -8 -3 -3 -3 -2 -2 -1 0 2 1 0 -1 -6 -6 -1 -1 0 1 3 6 9 9 9 8 7 4 4 3
-14 -14 -11 -7 -5 -6 -7 -4 -4 -3 -1 -1 -2 -0 -0 -2 -5 -4 -3 1 2 2 5 4 6 7 8 8 7 6 4 4
-16 -10 -9 -9 -9 -8 -7 -4 -3 -1 2 1 0 -1 -2 -1 1 2 2 0 2 4 4 5 5 6 7 7 8 6 5 4
-14 -12 -10 -8 -8 -6 -4 -5 -5 -5 -5 -6 -7 -6 -3 2 4 3 2 1 3 4 4 4 5 5 6 7 7 6 5 5
-11 -9 -9 -10 -8 -7 -7 -8 -7 -6 -8 -7 -4 -3 3 4 4 3 1 2 3 3 3 3 2 5 6 6 6 5 5 4
-10 -11 -11 -8 -7 -7 -8 -8 -10 -6 -3 -2 -1 -0 2 3 2 2 2 3 3 3 2 2 4 5 6 6 5 4 4 4
-12 -11 -9 -7 -8 -8 -9 -11 -6 -3 -2 -1 1 1 1 1 1 2 2 2 2 1 2 3 5 5 6 5 5 4 4 4
-13 -11 -7 -9 -9 -9 -9 -7 -3 -3 -1 -1 1 2 1 2 2 1 2 1 1 0 2 4 5 5 4 4 4 3 3 2
-11 -10 -9 -9 -9 -10 -8 -3 -1 -1 -1 -1 1 2 3 2 1 2 1 -0 -1 -0 1 2 3 4 3 3 2 1 2 2
-10 -10 -12 -10 -8 -8 -3 -2 -0 -0 -1 -1 1 2 1 2 2 1 -0 -1 -1 -1 -0 0 1 1 1 2 1 0 1 1
-8 -9 -8 -8 -8 -4 -2 -2 -0 -2 -2 -0 0 1 1 1 1 -0 -1 -2 -2 -1 -1 -1 -0 0 -0 -0 0 0 -0 -0
-10 -8 -8 -9 -8 -5 -1 -1 -2 -2 -1 -1 -0 1 0 1 0 -1 -2 -2 -2 -2 -2 -2 -1 -1 -1 -1 -1 -1 -2 -1

GFSFLT1_850_dewp_201.txt.gz
Dewpoint
3 3 3 3 2 2 3 7 11 13 14 14 13 12 13 13 13 13 13 13 13 13 13 13 12 12 13 13 12 12 11 11
4 3 4 5 8 10 11 11 13 13 14 13 13 12 10 10 12 12 12 12 12 13 12 13 12 12 12 12 12 12 12 10
3 2 2 2 2 2 2 1 -1 -2 -3 -4 -4 -4 -4 -3 0 3 11 12 11 11 12 12 12 12 12 12 12 12 12 10
3 1 1 0 -1 -2 -3 -4 -5 -6 -6 -6 -7 -7 -8 -9 -9 -7 -2 -1 2 5 5 7 8 10 11 11 11 11 11 11
1 1 -1 -2 -3 -3 -4 -4 -4 -4 -4 -4 -5 -4 -4 -4 -5 -4 -5 -3 -1 -2 -4 -4 -7 -7 -4 6 9 10 11 9
0 -4 -3 -3 -4 -4 -4 -4 -4 -4 -4 -5 -5 -6 -6 -6 -4 -1 1 -0 -1 -2 -3 -4 -4 -7 -8 -5 3 8 8 9
-6 -4 -5 -6 -5 -5 -6 -6 -7 -8 -9 -9 -9 -6 -3 -3 -3 -2 -1 -2 -4 -5 -6 -4 -4 -5 -5 -5 -2 3 6 7
-7 -6 -6 -5 -5 -7 -9 -10 -11 -11 -10 -9 -8 -6 -5 -2 -1 -3 -4 -3 -2 -2 -3 -3 -7 -4 -0 -1 -1 -2 2 6
-9 -8 -6 -7 -9 -10 -10 -10 -9 -8 -8 -8 -8 -9 -12 -11 -9 -8 -9 -8 -7 -7 -7 -7 -6 3 3 2 1 0 -1 -0
-7 -8 -9 -9 -9 -9 -9 -9 -8 -9 -10 -11 -13 -14 -9 -8 -8 -8 -9 -9 -5 -3 -2 3 3 2 2 1 0 3 3 1
-8 -9 -9 -8 -9 -8 -9 -8 -9 -10 -14 -18 -13 -8 -6 -5 -5 -5 -8 -9 -2 -1 -1 2 2 1 -0 -0 0 1 2 3
-9 -10 -10 -8 -8 -8 -9 -9 -13 -18 -18 -13 -11 -9 -6 -4 -4 -6 -9 -7 -2 -0 1 1 1 -1 -1 -0 1 1 2 2
-11 -10 -9 -8 -9 -9 -12 -17 -15 -15 -14 -13 -9 -6 -5 -5 -6 -7 -4 -2 -1 1 1 1 -1 -1 -1 0 1 1 1 1
-11 -9 -8 -9 -12 -15 -14 -14 -13 -13 -13 -9 -7 -7 -6 -6 -7 -4 -3 -0 0 1 1 0 1 0 -0 -1 -1 -1 -1 -0
-10 -8 -10 -12 -12 -12 -13 -12 -12 -11 -10 -8 -8 -7 -6 -6 -3 -2 -1 -1 -0 -0 -0 -0 -1 -1 -2 -2 -2 -1 -1 -0
-9 -10 -11 -12 -12 -13 -14 -11 -10 -9 -8 -8 -7 -6 -3 -2 -2 -2 -1 -2 -1 -0 -1 -2 -2 -2 -2 -2 -1 -1 -0 1
-10 -11 -13 -13 -14 -14 -12 -10 -8 -8 -8 -7 -6 -3 -2 -2 -2 -2 -2 -1 -1 -1 -2 -2 -2 -2 -2 -2 -1 -1 -0 2
-11 -13 -13 -14 -13 -11 -10 -8 -7 -7 -7 -6 -3 -2 -2 -3 -3 -2 -2 -2 -2 -2 -3 -2 -3 -3 -4 -3 -2 -1 -0 0
-12 -12 -12 -12 -11 -10 -8 -6 -7 -7 -5 -4 -2 -2 -3 -4 -3 -2 -2 -2 -3 -3 -3 -3 -4 -4 -3 -3 -2 -2 -1 0

GFSFLT1_850_dewp_207.txt.gz
Dewpoint
-0 -1 -1 -2 -2 -1 1 4 8 12 13 14 14 14 13 13 12 12 12 12 12 11 11 12 11 12 11 12 11 11 11 11
1 0 0 -0 -1 -1 1 5 8 13 14 14 14 14 13 12 12 11 10 10 10 10 11 10 8 9 9 9 9 10 9 11
3 2 3 2 1 1 5 9 14 14 14 14 14 12 8 4 -6 -9 -11 -10 -7 -6 -5 -2 -0 -0 -0 0 0 -1 -1 2
6 6 7 6 5 6 10 13 13 14 14 12 5 -2 -6 -9 -10 -11 -12 -12 -12 -11 -9 -8 -7 -6 -4 -4 -4 -4 -5 -5
8 11 11 13 13 13 13 12 10 5 -0 -4 -7 -10 -12 -13 -14 -14 -15 -15 -14 -12 -12 -11 -10 -9 -9 -6 -4 -3 -3 -4
6 5 2 -1 -2 -3 -4 -5 -5 -7 -9 -11 -13 -14 -13 -12 -12 -13 -12 -14 -15 -17 -15 -14 -13 -13 -14 -15 -14 -12 -8 -4
4 2 -1 -2 -3 -4 -4 -6 -8 -9 -12 -13 -12 -12 -13 -15 -18 -20 -23 -24 -22 -20 -14 -14 -14 -14 -15 -16 -17 -14 -8 -1
3 2 -0 -2 -2 -3 -6 -8 -10 -11 -12 -11 -11 -13 -16 -19 -23 -24 -23 -21 -21 -23 -21 -20 -18 -15 -14 -15 -14 -11 -6 2
3 1 -1 -2 -3 -5 -7 -10 -11 -10 -10 -10 -13 -15 -18 -21 -25 -26 -22 -21 -21 -17 -16 -14 -14 -14 -13 -10 -7 -6 -3 2
3 1 -1 -3 -5 -7 -9 -10 -10 -9 -10 -12 -15 -16 -18 -23 -23 -20 -18 -17 -14 -13 -11 -6 -5 -4 -4 -3 1 2 1 2
2 1 -1 -4 -6 -8 -8 -9 -9 -10 -11 -14 -15 -16 -19 -16 -14 -15 -15 -12 -11 -9 -6 -3 -3 -3 -2 -1 0 1 1 1
1 -1 -3 -5 -7 -8 -8 -8 -9 -11 -14 -14 -16 -18 -15 -14 -15 -15 -12 -11 -8 -4 -3 -3 -3 -1 -0 -0 -1 -1 -1 -1
-0 -2 -4 -7 -8 -8 -8 -9 -11 -13 -13 -16 -17 -15 -13 -14 -15 -13 -11 -6 -3 -3 -3 -3 -2 -2 -1 -1 -1 -1 -1 -1
-2 -4 -7 -7 -7 -8 -8 -10 -13 -13 -16 -18 -14 -12 -11 -13 -11 -10 -6 -3 -3 -4 -3 -3 -2 -2 -2 -2 -2 -2 -2 -2
-4 -6 -8 -7 -8 -8 -10 -12 -13 -16 -17 -13 -10 -10 -11 -10 -9 -6 -3 -3 -4 -4 -3 -3 -3 -3 -3 -3 -3 -3 -3 -3
-6 -8 -7 -7 -7 -9 -12 -13 -16 -15 -11 -9 -8 -10 -9 -7 -5 -3 -3 -4 -4 -4 -3 -3 -3 -3 -4 -4 -3 -4 -4 -4
-7 -8 -8 -7 -9 -12 -13 -14 -13 -11 -9 -8 -9 -8 -6 -4 -3 -3 -4 -4 -4 -4 -4 -4 -4 -4 -4 -5 -5 -4 -4 -4
-8 -9 -7 -8 -11 -13 -14 -12 -10 -9 -8 -9 -7 -5 -4 -4 -3 -4 -4 -4 -4 -4 -4 -4 -4 -5 -5 -5 -5 -4 -4 -3
-9 -9 -8 -11 -13 -13 -12 -11 -9 -8 -9 -7 -5 -5 -4 -4 -4 -4 -5 -4 -4 -4 -4 -5 -5 -5 -5 -5 -5 -4 -3 -3